Location: Unspecified
(0.0000°N, 0.0000°E)
Time: 22:26:26
(UTC+00:00)

ISS - Pass Details

Date: 15 July 2019
Orbit: 409 x 418 km, 51.6° (Epoch: 22 July)

Event Time Altitude Azimuth Distance (km) Brightness Sun altitude
Rises 18:28:56 0° 199° (SSW) 2,357 0.0 -5.3°
Reaches altitude 10° 18:31:13 10° 187° (S) 1,491 -1.1 -5.9°
Maximum altitude 18:34:10 28° 126° (SE) 802 -2.9 -6.5°
Drops below altitude 10° 18:37:06 10° 64° (ENE) 1,483 -1.4 -7.2°
Sets 18:39:21 0° 52° (NE) 2,341 -0.3 -7.7°
